Tracking 18852 objects as of 23-Nov-2017
HD Live streaming from Space Station
objects crossing your sky now

COSMOS 2205 (GLONASS)

Track COSMOS 2205 (GLONASS) now!
COSMOS 2205 (GLONASS) is classified as:


NORAD ID: 22058
Int'l Code: 1992-047C
Perigee: 19,107.0 km
Apogee: 19,166.9 km
Inclination: 64.6 °
Period: 675.7 minutes
Semi major axis: 25507 km
RCS: 1.3644 m2 (large)
Launch date: July 30, 1992
Source: Commonwealth of Independent States (former USSR) (CIS)
Launch site: TYURATAM MISSILE AND SPACE COMPLEX (TTMTR)
SV:
aabbcc
Your satellite tracking list
Your tracking list is empty




NASA's NSSDC Master Catalog

Two Line Element Set (TLE):
1 22058U 92047C   17326.79516157 -.00000045  00000-0  00000+0 0  9998
2 22058  64.6082  51.1519 0011739 231.6891  77.1950  2.13102988197031
Source of the keplerian elements: AFSPC